[[{"header":{"parameterUnit":"m.s-1","parameterCategory":2,"la1":30.2992,"la2":30.254,"lo1":-89.0895,"lo2":-89.0443,"dy":0.0025,"dx":0.0025,"nx":19,"ny":19,"refTime":"2026-05-22T03:00:00:Z","depth":"0","parameterNumber":2,"parameterNumberName":"U-component_of_CURRENTS"},"data":[0,0,0,-0.0124,-0.0124,-0.0145,-0.0145,-0.0105,-0.0104,0,0,0,0,0,0,0,0,0,0,0,-0.0095,-0.0095,-0.0124,-0.0124,-0.0145,-0.0145,-0.0105,-0.0104,0,0,0,0,0,0,0,0,0,0,0,-0.0096,-0.0095,-0.0095,-0.0125,-0.0145,-0.0145,-0.0105,-0.0105,0,0,0,0,0,0,0,0,0,0,-0.0094,-0.0059,-0.0095,-0.0095,-0.0125,-0.0145,-0.0145,-0.0106,-0.0105,-0.0078,0,-0.0068,0,-0.0094,-0.01,-0.01,0,0,0,-0.0121,-0.006,-0.0088,-0.0095,-0.0125,-0.0145,-0.0135,-0.0106,-0.0105,-0.0077,-0.0067,-0.0067,-0.0093,-0.01,-0.01,0.0213,0.0216,0,0,-0.012,-0.008,-0.0088,-0.0086,-0.0111,-0.0134,-0.0135,-0.0106,-0.0082,-0.0067,-0.0067,-0.0093,-0.01,-0.0099,0.0211,0.0214,0,0,0,-0.0119,-0.0078,-0.0108,-0.0087,-0.0101,-0.0135,-0.0136,-0.0083,-0.0098,-0.0067,-0.0092,-0.0099,-0.0099,0.0207,0.0212,0.0425,0,0,0,-0.0118,-0.0079,-0.0107,-0.008,-0.0101,-0.0097,-0.0112,-0.01,-0.0098,-0.0092,-0.0099,-0.0098,0.0204,0.021,0.0412,0.0423,0,0,0,-0.0098,-0.0077,-0.0079,-0.0078,-0.0095,-0.0099,-0.0112,-0.01,-0.0114,-0.01,-0.0098,0.0202,0.0209,0.0401,0.0407,0.0446,0,0,0,-0.0059,0.0071,-0.0077,0.0062,-0.0094,0.0042,-0.0113,-0.0032,0.0002,-0.0099,0.0204,0.0211,0.0397,0.0397,0.0438,0.0444,0.0485,0,0,0.0148,0.0097,0.018,0.0048,0.0209,0.0043,0.0259,0.02,0.0122,0.0191,0.0197,0.0417,0.0405,0.0444,0.0857,0.0884,0,0,0,0.0275,0.0324,0.0355,0.0388,0.0405,0.0429,0.039,0.0388,0.0443,0.017,0.0503,0.0488,0.0505,0.0496,0.0521,0.058,0.0245,0.0244,0.0243,0.0581,0.0551,0.0673,0.0655,0.0729,0.0729,0.0771,0.0762,0.0688,0.0771,0.0731,0.0989,0.0996,0.101,0.108,0.0852,0.0853,0.0853,0.0854,0.0791,0.0797,0.0804,0.0893,0.0906,0.1036,0.1102,0.1068,0.1141,0.1044,0.1051,0.0808,0.1048,0.1112,0.0869,0.0866,0.0864,0.0863,0.0862,0.0827,0.0831,0.0861,0.0943,0.1047,0.1113,0.1182,0.1225,0.1267,0.1318,0.1206,0.1201,0.1181,0.1305,0.1306,0.1306,0.1306,0.1307,0.1307,0.0801,0.0847,0.0876,0.0968,0.1014,0.1088,0.1188,0.1258,0.136,0.1394,0.1393,0.1325,0.1123,0.1017,0.1312,0.1311,0.1311,0.131,0.131,0.0803,0.0795,0.0846,0.0883,0.099,0.1041,0.1143,0.1299,0.1385,0.1462,0.1573,0.1429,0.1316,0.1296,0.1196,0.1518,0.1518,0.1518,0.1518,0.0772,0.0782,0.0816,0.0858,0.0944,0.1016,0.1108,0.1263,0.1515,0.1647,0.17,0.1669,0.1657,0.156,0.1535,0.1437,0.1813,0.1814,0.1814,0.0764,0.0775,0.0785,0.0826,0.0919,0.0994,0.1055,0.1183,0.1593,0.1832,0.18,0.1787,0.1743,0.1718,0.1555,0.1514,0.1345,0,0]},{"header":{"parameterUnit":"m.s-1","parameterCategory":2,"la1":30.2992,"la2":30.254,"lo1":-89.0895,"lo2":-89.0443,"dy":0.0025,"dx":0.0025,"nx":19,"ny":19,"refTime":"2026-05-22T03:00:00:Z","depth":"0","parameterNumber":3,"parameterNumberName":"V-component_of_CURRENTS"},"data":[0,0,0,0.0037,0.004,0.016,0.016,0.0329,0.0331,0,0,0,0,0,0,0,0,0,0,0,0.0007,0.0008,0.0037,0.004,0.0159,0.016,0.0329,0.0331,0,0,0,0,0,0,0,0,0,0,0,0.0006,0.0007,0.0008,0.004,0.0159,0.016,0.0329,0.0236,0,0,0,0,0,0,0,0,0,0,0.0119,0.0129,0.0007,0.0009,0.0041,0.0159,0.016,0.0232,0.0242,0.0277,0,0.0301,0,0.0313,0.0342,0.0342,0,0,0,0.0049,0.0121,0.0106,0.0009,0.0042,0.0159,0.0108,0.0238,0.0249,0.0291,0.0304,0.031,0.0316,0.0343,0.0344,0.0618,0.062,0,0,0.0042,0.0075,0.0098,0.0114,0.0082,0.0104,0.0112,0.0245,0.0289,0.0304,0.0314,0.0319,0.0344,0.0345,0.0617,0.0619,0,0,0,0.0017,0.0071,0.0054,0.0107,0.0124,0.0107,0.0116,0.0284,0.0265,0.0315,0.0321,0.0345,0.0347,0.0615,0.0617,0.0645,0,0,0,0.0013,0.0054,0.0051,0.0078,0.0121,0.0215,0.0153,0.0256,0.0271,0.032,0.0345,0.0348,0.0613,0.0616,0.064,0.0672,0,0,0,-0.0001,0.0054,0.0059,0.0078,0.0119,0.0211,0.0204,0.026,0.0274,0.0342,0.0349,0.0611,0.0616,0.0635,0.0664,0.0723,0,0,0,0.0038,0.0192,0.0061,0.0248,0.0118,0.0293,0.0203,0.0365,0.0449,0.0346,0.0613,0.0617,0.0634,0.066,0.0719,0.0707,0.0727,0,0,0.027,0.0221,0.0332,0.0218,0.0396,0.0276,0.0455,0.051,0.0512,0.0566,0.0573,0.0642,0.0664,0.0722,0.0953,0.0965,0,0,0,0.0433,0.0467,0.0521,0.057,0.0627,0.0603,0.0634,0.0614,0.0667,0.0572,0.0721,0.0737,0.0771,0.0757,0.0769,0.0733,0.0637,0.0636,0.0636,0.0725,0.07,0.0838,0.0795,0.0879,0.0855,0.0856,0.0821,0.0814,0.0845,0.0816,0.0964,0.0954,0.0961,0.0927,0.0874,0.0874,0.0874,0.0874,0.0921,0.094,0.0921,0.1017,0.0973,0.1061,0.1014,0.0964,0.098,0.0932,0.0963,0.086,0.0975,0.0934,0.0877,0.0877,0.0876,0.0876,0.0876,0.0943,0.0954,0.0976,0.103,0.111,0.1112,0.1098,0.1057,0.1046,0.1065,0.1071,0.107,0.0981,0.109,0.109,0.1091,0.1091,0.1092,0.1092,0.0937,0.0966,0.0977,0.1048,0.1111,0.1152,0.115,0.1142,0.1157,0.1145,0.1144,0.1061,0.103,0.0961,0.1099,0.1097,0.1097,0.1096,0.1095,0.0945,0.0929,0.0954,0.0992,0.1116,0.1169,0.1192,0.1217,0.1236,0.1269,0.1175,0.1179,0.1172,0.1163,0.11,0.1266,0.1266,0.1266,0.1266,0.0941,0.0933,0.0972,0.1023,0.1087,0.1181,0.1235,0.1299,0.1293,0.1269,0.1227,0.1156,0.115,0.1138,0.1129,0.1065,0.1218,0.1217,0.1217,0.095,0.0969,0.0995,0.1026,0.1113,0.1176,0.1253,0.1359,0.13,0.1212,0.1187,0.1189,0.1077,0.1071,0.104,0.1031,0.092,0,0]}],[{"header":{"parameterUnit":"m.s-1","parameterCategory":2,"la1":30.2992,"la2":30.254,"lo1":-89.0895,"lo2":-89.0443,"dy":0.0025,"dx":0.0025,"nx":19,"ny":19,"refTime":"2026-05-22T03:00:00:Z","depth":"2","parameterNumber":2,"parameterNumberName":"U-component_of_CURRENTS"},"data":[0,0,0,-0.0056,-0.0056,-0.0062,-0.0062,-0.0027,-0.0027,0,0,0,0,0,0,0,0,0,0,0,-0.0039,-0.0039,-0.0056,-0.0056,-0.0062,-0.0062,-0.0028,-0.0027,0,0,0,0,0,0,0,0,0,0,0,-0.0039,-0.0039,-0.0038,-0.0056,-0.0062,-0.0062,-0.0028,-0.0033,0,0,0,0,0,0,0,0,0,0,-0.0032,-0.0011,-0.0039,-0.0038,-0.0056,-0.0062,-0.0062,-0.0034,-0.0033,-0.0013,0,-0.0005,0,-0.0021,-0.0024,-0.0024,0,0,0,-0.0054,-0.0012,-0.0028,-0.0038,-0.0056,-0.0062,-0.0059,-0.0034,-0.0032,-0.0012,-0.0004,-0.0004,-0.0021,-0.0024,-0.0023,0.0014,0.0014,0,0,-0.0054,-0.0027,-0.0029,-0.0027,-0.0044,-0.0059,-0.0059,-0.0033,-0.0016,-0.0004,-0.0004,-0.002,-0.0023,-0.0023,0.0014,0.0014,0,0,0,-0.0054,-0.0026,-0.0044,-0.0028,-0.0036,-0.0059,-0.0059,-0.0017,-0.0026,-0.0003,-0.002,-0.0023,-0.0023,0.0014,0.0014,-0.0004,0,0,0,-0.0054,-0.0028,-0.0044,-0.0026,-0.0036,-0.003,-0.0043,-0.0028,-0.0026,-0.002,-0.0023,-0.0022,0.0013,0.0014,-0.0003,0.0022,0,0,0,-0.0041,-0.0026,-0.0027,-0.0025,-0.0033,-0.0031,-0.0039,-0.0028,-0.0036,-0.0024,-0.0022,0.0013,0.0014,-0.0003,0.0022,0.0078,0,0,0,-0.0016,0.0043,-0.0025,0.0047,-0.0033,-0.0012,-0.0039,-0.0003,0.0016,-0.0023,0.0013,0.0014,-0.0003,0.0021,0.0077,0.0122,0.0131,0,0,0.0078,0.0055,0.0099,0.0038,0.0035,-0.0012,-0.0005,0.0011,0.0017,0.0008,0.0009,-0.0004,0.0022,0.0078,0.0131,0.014,0,0,0,0.0143,0.0124,0.0135,0.0106,0.0109,0.0038,0.003,0.0017,0.0007,0.0025,0.0004,0.0022,0.0058,0.0082,0.0089,0.0014,0.0014,0.0014,0.0014,0.0191,0.0169,0.0175,0.0113,0.0123,0.007,0.0046,0.0009,0.0028,0.0015,0.0012,0.0052,0.0075,0.0082,-0.0,-0.0001,-0.0001,-0.0001,-0.0001,0.0187,0.0165,0.0118,0.0119,0.0063,0.0059,0.0015,0.0006,0.0012,-0.0002,0.0033,0.0067,0.0089,-0.0002,-0.0002,-0.0002,-0.0001,-0.0001,-0.0001,0.0113,0.0113,0.0119,0.0118,0.008,0.0064,0.0087,0.0082,0.0031,0.0042,0.0137,0.0137,0.0073,0.0093,0.0093,0.0093,0.0094,0.0094,0.0094,0.0078,0.0079,0.0108,0.0117,0.0137,0.0152,0.0189,0.0208,0.0217,0.0157,0.0158,0.0085,0.0082,0.0081,0.0099,0.0098,0.0098,0.0097,0.0097,0.006,0.0104,0.0135,0.0172,0.02,0.0205,0.0252,0.0299,0.0347,0.0306,0.0218,0.0213,0.0242,0.0236,0.0239,0.0298,0.0298,0.0298,0.0298,0.0085,0.0092,0.0163,0.0208,0.0232,0.0214,0.0263,0.0364,0.0386,0.0413,0.0408,0.0372,0.0361,0.0395,0.0385,0.0391,0.049,0.049,0.049,0.0134,0.0129,0.0182,0.0206,0.0223,0.0204,0.0242,0.0378,0.049,0.0498,0.0443,0.0311,0.0241,0.0231,0.0267,0.0257,0.026,0,0]},{"header":{"parameterUnit":"m.s-1","parameterCategory":2,"la1":30.2992,"la2":30.254,"lo1":-89.0895,"lo2":-89.0443,"dy":0.0025,"dx":0.0025,"nx":19,"ny":19,"refTime":"2026-05-22T03:00:00:Z","depth":"2","parameterNumber":3,"parameterNumberName":"V-component_of_CURRENTS"},"data":[0,0,0,-0.0156,-0.0155,-0.0088,-0.0088,-0.0014,-0.0014,0,0,0,0,0,0,0,0,0,0,0,-0.0178,-0.0178,-0.0156,-0.0155,-0.0088,-0.0088,-0.0014,-0.0014,0,0,0,0,0,0,0,0,0,0,0,-0.0178,-0.0178,-0.0178,-0.0154,-0.0088,-0.0088,-0.0015,-0.006,0,0,0,0,0,0,0,0,0,0,-0.0122,-0.0128,-0.0178,-0.0178,-0.0154,-0.0088,-0.0088,-0.0062,-0.0057,-0.0051,0,-0.0044,0,-0.0031,-0.001,-0.001,0,0,0,-0.0146,-0.0131,-0.0132,-0.0178,-0.0154,-0.0088,-0.0116,-0.0059,-0.0054,-0.0044,-0.0043,-0.004,-0.003,-0.001,-0.0009,-0.0154,-0.0156,0,0,-0.0149,-0.0146,-0.0136,-0.0129,-0.0141,-0.0118,-0.0114,-0.0055,-0.0041,-0.0043,-0.0038,-0.0029,-0.0009,-0.0009,-0.0152,-0.0154,0,0,0,-0.0166,-0.0149,-0.015,-0.0132,-0.0121,-0.0116,-0.0111,-0.0044,-0.0049,-0.0038,-0.0028,-0.0009,-0.0008,-0.015,-0.0153,-0.0293,0,0,0,-0.0168,-0.016,-0.0152,-0.0146,-0.0123,-0.0076,-0.0101,-0.0053,-0.0046,-0.0029,-0.0009,-0.0008,-0.0147,-0.0151,-0.0285,-0.0292,0,0,0,-0.018,-0.016,-0.0159,-0.0147,-0.0124,-0.0077,-0.0077,-0.0051,-0.0041,-0.001,-0.0008,-0.0146,-0.015,-0.0277,-0.0281,-0.026,0,0,0,-0.0171,-0.0213,-0.0158,-0.0198,-0.0125,-0.0199,-0.0077,-0.0083,-0.0068,-0.0009,-0.0148,-0.0152,-0.0275,-0.0275,-0.0255,-0.0133,-0.0146,0,0,-0.0237,-0.0219,-0.025,-0.0201,-0.0304,-0.0207,-0.0314,-0.0211,-0.0145,-0.016,-0.0162,-0.0288,-0.0281,-0.0259,-0.041,-0.0413,0,0,0,-0.0281,-0.0322,-0.0339,-0.037,-0.0382,-0.0409,-0.0345,-0.0328,-0.0325,-0.0159,-0.0346,-0.0337,-0.0317,-0.0237,-0.0242,-0.0175,-0.0174,-0.0174,-0.0173,-0.0457,-0.0447,-0.0524,-0.0538,-0.0569,-0.0563,-0.0573,-0.0548,-0.0477,-0.0517,-0.0498,-0.0636,-0.0562,-0.0562,-0.0578,-0.0579,-0.0579,-0.058,-0.058,-0.0615,-0.0646,-0.0653,-0.0713,-0.0727,-0.0794,-0.0801,-0.0752,-0.0746,-0.0694,-0.0669,-0.0449,-0.0574,-0.0593,-0.059,-0.0588,-0.0587,-0.0586,-0.0585,-0.0721,-0.0722,-0.0738,-0.0791,-0.0871,-0.0894,-0.0872,-0.0862,-0.0846,-0.0844,-0.0658,-0.0653,-0.0618,-0.0811,-0.0811,-0.0811,-0.0811,-0.0811,-0.0811,-0.0775,-0.0792,-0.0815,-0.0869,-0.0899,-0.0923,-0.0877,-0.0832,-0.0787,-0.0766,-0.0764,-0.071,-0.0703,-0.063,-0.0812,-0.0812,-0.0811,-0.0811,-0.0811,-0.0836,-0.0802,-0.0841,-0.0861,-0.092,-0.0876,-0.0833,-0.0698,-0.0661,-0.0649,-0.0698,-0.0701,-0.0605,-0.0599,-0.0524,-0.0667,-0.0667,-0.0667,-0.0666,-0.0847,-0.0845,-0.085,-0.0873,-0.0904,-0.0863,-0.0654,-0.0491,-0.048,-0.0466,-0.0475,-0.0436,-0.0446,-0.0337,-0.0338,-0.0255,-0.0328,-0.0327,-0.0327,-0.0857,-0.0851,-0.0855,-0.0865,-0.0902,-0.0802,-0.0546,-0.0224,-0.0156,-0.0314,-0.042,-0.0643,-0.0608,-0.0615,-0.0461,-0.0457,-0.0329,0,0]}],[{"header":{"parameterUnit":"m.s-1","parameterCategory":2,"la1":30.2992,"la2":30.254,"lo1":-89.0895,"lo2":-89.0443,"dy":0.0025,"dx":0.0025,"nx":19,"ny":19,"refTime":"2026-05-22T03:00:00:Z","depth":"4","parameterNumber":2,"parameterNumberName":"U-component_of_CURRENTS"},"data":[0,0,0,-0.0074,-0.0073,-0.0049,-0.0049,-0.0003,-0.0002,0,0,0,0,0,0,0,0,0,0,0,-0.0101,-0.0102,-0.0074,-0.0073,-0.0049,-0.0049,-0.0003,-0.0002,0,0,0,0,0,0,0,0,0,0,0,-0.0101,-0.0102,-0.0102,-0.0073,-0.0049,-0.0049,-0.0003,-0.0026,0,0,0,0,0,0,0,0,0,0,-0.0052,-0.0094,-0.0101,-0.0102,-0.0073,-0.0049,-0.0049,-0.0027,-0.0024,-0.0008,0,-0.0018,0,0.0001,0.0002,0.0002,0,0,0,-0.0076,-0.0096,-0.007,-0.0102,-0.0073,-0.0049,-0.0061,-0.0026,-0.0022,-0.0005,-0.0017,-0.0015,0.0002,0.0002,0.0002,-0.0034,-0.0035,0,0,-0.0078,-0.0111,-0.0072,-0.0069,-0.0083,-0.0062,-0.006,-0.0024,-0.0039,-0.0017,-0.0013,0.0003,0.0002,0.0003,-0.0033,-0.0034,0,0,0,-0.008,-0.0113,-0.0088,-0.0071,-0.0062,-0.0061,-0.0059,-0.0041,-0.0028,-0.0013,0.0003,0.0003,0.0003,-0.0032,-0.0034,-0.003,0,0,0,-0.0081,-0.0112,-0.0089,-0.011,-0.0063,-0.0056,-0.0077,-0.0031,-0.0026,0.0003,0.0003,0.0004,-0.0031,-0.0033,-0.0028,-0.0006,0,0,0,-0.01,-0.0114,-0.0112,-0.0112,-0.0095,-0.0056,-0.0042,-0.003,-0.0015,0.0002,0.0004,-0.0031,-0.0033,-0.0026,-0.0004,0.0019,0,0,0,-0.0131,-0.0133,-0.0114,-0.0109,-0.0095,-0.0083,-0.0042,-0.0043,-0.0036,0.0003,-0.0032,-0.0033,-0.0026,-0.0004,0.002,0.0084,0,0,0,-0.014,-0.0136,-0.0125,-0.0106,-0.0099,-0.0085,-0.0094,-0.0071,-0.0061,-0.004,-0.0041,-0.0029,-0.0004,0.0019,-0.0032,0,0,0,0,-0.0131,-0.0136,-0.0128,-0.0123,-0.0105,-0.011,-0.01,-0.0092,-0.0087,-0.0063,-0.007,-0.0055,-0.0039,-0.0004,-0.0043,-0.0043,-0.0042,-0.0042,-0.0042,-0.0165,-0.0147,-0.0148,-0.0139,-0.0143,-0.014,-0.0133,-0.0131,-0.0117,-0.0133,-0.0083,-0.0103,-0.0073,-0.013,-0.013,-0.013,-0.013,-0.013,-0.013,-0.0162,-0.0152,-0.0163,-0.0157,-0.0164,-0.0175,-0.0162,-0.0154,-0.0119,-0.0126,-0.0111,-0.0043,-0.013,-0.013,-0.013,-0.013,-0.013,-0.013,-0.013,-0.0161,-0.016,-0.0164,-0.0173,-0.0181,-0.0179,-0.0141,-0.0134,-0.0114,-0.0093,-0.0041,-0.0093,-0.0054,-0.0082,-0.0082,-0.0082,-0.0082,-0.0082,-0.0081,-0.0149,-0.0161,-0.0173,-0.0182,-0.0182,-0.0161,-0.0119,-0.0071,-0.0056,-0.0022,-0.0081,-0.0086,-0.0088,-0.0053,-0.0079,-0.0079,-0.008,-0.008,-0.008,-0.0149,-0.0162,-0.0171,-0.0179,-0.0163,-0.0139,-0.0102,0.0009,0.006,0.0104,0.0018,0.0012,0.003,0.0026,0.0067,0.0075,0.0076,0.0077,0,-0.0152,-0.0158,-0.0169,-0.017,-0.0141,-0.0122,-0.0013,0.0057,0.0083,0.0058,0.0038,-0.0067,-0.0069,-0.0057,-0.0059,-0.0017,0,0,0,-0.0165,-0.016,-0.0165,-0.0162,-0.0132,-0.0038,0.0021,0.0066,0.0052,0.0173,0.0096,0.0091,0.0032,-0.0071,-0.0057,-0.0059,-0.0,0,0]},{"header":{"parameterUnit":"m.s-1","parameterCategory":2,"la1":30.2992,"la2":30.254,"lo1":-89.0895,"lo2":-89.0443,"dy":0.0025,"dx":0.0025,"nx":19,"ny":19,"refTime":"2026-05-22T03:00:00:Z","depth":"4","parameterNumber":3,"parameterNumberName":"V-component_of_CURRENTS"},"data":[0,0,0,-0.0115,-0.0115,-0.0116,-0.0116,-0.0144,-0.0145,0,0,0,0,0,0,0,0,0,0,0,-0.0124,-0.0124,-0.0115,-0.0115,-0.0116,-0.0116,-0.0144,-0.0145,0,0,0,0,0,0,0,0,0,0,0,-0.0123,-0.0124,-0.0125,-0.0115,-0.0116,-0.0116,-0.0144,-0.0133,0,0,0,0,0,0,0,0,0,0,-0.0128,-0.0158,-0.0124,-0.0125,-0.0115,-0.0116,-0.0116,-0.0132,-0.0134,-0.0155,0,-0.0173,0,-0.0163,-0.0148,-0.0149,0,0,0,-0.0102,-0.0157,-0.0138,-0.0125,-0.0116,-0.0116,-0.0112,-0.0133,-0.0135,-0.0158,-0.0173,-0.0174,-0.0163,-0.0149,-0.0149,-0.0204,-0.0204,0,0,-0.0102,-0.0138,-0.0136,-0.0139,-0.014,-0.0112,-0.0112,-0.0134,-0.0159,-0.0173,-0.0174,-0.0164,-0.0149,-0.015,-0.0204,-0.0204,0,0,0,-0.0111,-0.0139,-0.0119,-0.0139,-0.0139,-0.0113,-0.0113,-0.0158,-0.0146,-0.0174,-0.0164,-0.0149,-0.015,-0.0203,-0.0204,-0.015,0,0,0,-0.011,-0.0144,-0.0119,-0.0143,-0.0139,-0.015,-0.0137,-0.0145,-0.0146,-0.0164,-0.0149,-0.0151,-0.0203,-0.0204,-0.0151,-0.0159,0,0,0,-0.0119,-0.0145,-0.0148,-0.0144,-0.0147,-0.0149,-0.0139,-0.0144,-0.0141,-0.0149,-0.0151,-0.0203,-0.0204,-0.0152,-0.016,-0.0168,0,0,0,-0.015,-0.0209,-0.015,-0.0217,-0.0147,-0.0168,-0.0138,-0.0201,-0.0224,-0.015,-0.0203,-0.0204,-0.0152,-0.016,-0.0168,-0.012,0,0,0,-0.024,-0.0221,-0.0257,-0.0204,-0.0204,-0.0165,-0.0157,-0.0198,-0.0223,-0.0196,-0.0196,-0.0151,-0.016,-0.0168,-0.0148,0,0,0,0,-0.0296,-0.0281,-0.0292,-0.0268,-0.0272,-0.0189,-0.0207,-0.019,-0.0184,-0.0236,-0.0175,-0.0184,-0.019,-0.0164,-0.0206,-0.0206,-0.0206,-0.0206,-0.0206,-0.0354,-0.0323,-0.0319,-0.0251,-0.0257,-0.0219,-0.0181,-0.0146,-0.0191,-0.0185,-0.0156,-0.0154,-0.0124,-0.016,-0.016,-0.0159,-0.0159,-0.0159,-0.0159,-0.0333,-0.0295,-0.0238,-0.0218,-0.015,-0.0134,-0.0084,-0.0099,-0.0086,-0.011,-0.0117,-0.0129,-0.0154,-0.0155,-0.0156,-0.0157,-0.0157,-0.0157,-0.0157,-0.0263,-0.0249,-0.0219,-0.0156,-0.0101,-0.0082,-0.0048,-0.007,-0.0067,-0.0076,-0.0106,-0.0142,-0.0129,-0.0111,-0.0111,-0.0112,-0.0112,-0.0112,-0.0112,-0.0223,-0.0188,-0.0152,-0.0106,-0.0089,-0.0076,-0.0079,-0.0076,-0.0107,-0.0077,-0.0111,-0.0139,-0.014,-0.0129,-0.0112,-0.0112,-0.0112,-0.0112,-0.0112,-0.0178,-0.018,-0.0128,-0.0107,-0.0065,-0.0062,-0.0066,-0.0062,-0.0069,-0.0051,-0.0061,-0.0064,-0.0091,-0.0094,-0.0082,-0.0051,-0.005,-0.005,0,-0.0169,-0.0159,-0.011,-0.0077,-0.0051,-0.0044,-0.0018,-0.002,-0.0042,-0.0038,-0.0086,-0.01,-0.01,-0.0135,-0.0137,-0.0124,0,0,0,-0.0154,-0.0144,-0.0116,-0.008,-0.005,-0.0016,-0.0014,-0.001,-0.002,-0.0003,-0.0033,-0.0038,-0.0074,-0.0115,-0.0164,-0.0166,-0.0151,0,0]}]]